Location: Daytona Beach
(29.2106°N, 81.0231°W)
Time: 17:49:15
(UTC-04:00)

RS-15 - Pass Details

Date: 29 September 2021
Orbit: 1884 x 2160 km, 64.8° (Epoch: 26 October)

Event Time Altitude Azimuth Distance (km) Brightness Sun altitude
Rises 01:31:34 0° 332° (NNW) 5,654 10.8 -63.0°
Reaches altitude 10° 01:34:59 10° 332° (NNW) 4,664 10.2 -62.9°
Enters shadow 01:37:59 21° 332° (NNW) 3,822 9.6 -62.7°
